San Diego, CA

12:10 PM PDT on August 27, 2016 (GMT -0700)
Miramar Marine Corps Air Station-Mitscher

Weather History for KNKX - February, 2013

Change the Weather History Date:

Tuesday, February 26, 2013

  Actual Average Record
Temperature  
Mean Temperature 52 °F -  
Max Temperature 66 °F 61 °F 82 °F (2002)
Min Temperature 37 °F 44 °F 37 °F (2013)
Degree Days  
Heating Degree Days 14    
Growing Degree Days 2 (Base 50)    
Moisture  
Dew Point 32 °F    
Average Humidity 50    
Maximum Humidity 71    
Minimum Humidity 27    
Precipitation  
Precipitation 0.00 in - - ()
Sea Level Pressure  
Sea Level Pressure 30.02 in    
Wind  
Wind Speed 7 mph (NNE)    
Max Wind Speed 12 mph    
Max Gust Speed -    
Visibility 10 miles    
Events      
Averages and records for this station are not official NWS values.
T = Trace of Precipitation, MM = Missing Value Source: NWS Daily Summary

Daily Weather History Graph

Daily Weather History Graph

Search for Another Location

Airport or City:

Trip Planner

Search our weather history database for the weather conditions in past years. The results will help you decide how hot, cold, wet, or windy it might be!

Date:

Astronomy

Feb. 26, 2013 Rise Set
Actual Time 6:19 AM PST 5:43 PM PST
Civil Twilight 5:54 AM PST 6:08 PM PST
Nautical Twilight 5:26 AM PST 6:37 PM PST
Astronomical Twilight 4:57 AM PST 7:05 PM PST
Moon 6:57 PM PST (2/26) 6:30 AM PST (2/26)
Length of Visible Light 12h 13m
Length of Day
11h 24m
Full, 99% of the Moon is Illuminated
Feb 26
Full
Mar 4
Last Quarter
Mar 11
New
Mar 19
First Quarter
Mar 27
Full

Hourly Weather History & Observations

Time (PST) Temp. Windchill Dew Point Humidity Pressure Visibility Wind Dir Wind Speed Gust Speed Precip Events Conditions
12:55 AM 42.1 °F 37.1 °F 28.0 °F 58% 30.06 in 10.0 mi ENE 8.1 mph - N/A   Partly Cloudy
1:55 AM 41.0 °F 35.8 °F 27.0 °F 57% 30.04 in 10.0 mi ENE 8.1 mph - N/A   Clear
2:55 AM 39.0 °F 33.4 °F 26.1 °F 60% 30.01 in 10.0 mi East 8.1 mph - N/A   Clear
3:55 AM 39.9 °F 35.1 °F 26.1 °F 58% 30.00 in 10.0 mi East 6.9 mph - N/A   Clear
4:55 AM 39.0 °F 32.3 °F 25.0 °F 57% 30.00 in 10.0 mi ENE 10.4 mph - N/A   Clear
5:55 AM 37.0 °F 31.0 °F 25.0 °F 62% 30.00 in 10.0 mi ENE 8.1 mph - N/A   Clear
6:55 AM 39.0 °F 34.0 °F 26.1 °F 60% 30.01 in 10.0 mi East 6.9 mph - N/A   Clear
7:55 AM 51.1 °F - 28.0 °F 41% 30.02 in 10.0 mi Calm Calm - N/A   Partly Cloudy
8:55 AM 55.9 °F - 30.9 °F 39% 30.03 in 10.0 mi Calm Calm - N/A   Clear
9:55 AM 61.0 °F - 32.0 °F 34% 30.04 in 10.0 mi NNW 4.6 mph - N/A   Clear
10:55 AM 64.0 °F - 28.9 °F 27% 30.03 in 10.0 mi NW 5.8 mph - N/A   Clear
11:55 AM 66.0 °F - 32.0 °F 28% 30.01 in 10.0 mi West 6.9 mph - N/A   Clear
12:55 PM 66.0 °F - 30.9 °F 27% 29.98 in 10.0 mi NW 6.9 mph - N/A   Clear
1:55 PM 64.0 °F - 33.1 °F 31% 29.98 in 10.0 mi West 11.5 mph - N/A   Partly Cloudy
2:55 PM 63.0 °F - 37.9 °F 40% 29.98 in 10.0 mi NNW 10.4 mph - N/A   Clear
3:55 PM 64.0 °F - 39.9 °F 41% 29.98 in 10.0 mi NW 10.4 mph - N/A   Clear
4:55 PM 61.0 °F - 37.9 °F 42% 29.99 in 10.0 mi NW 9.2 mph - N/A   Clear
5:55 PM 57.0 °F - 42.1 °F 57% 29.99 in 10.0 mi NNW 4.6 mph - N/A   Clear
6:55 PM 55.9 °F - 41.0 °F 57% 30.02 in 10.0 mi NNW 3.5 mph - N/A   Clear
7:55 PM 48.0 °F - 39.0 °F 71% 30.04 in 10.0 mi Calm Calm - N/A   Clear
8:55 PM 48.0 °F - 37.9 °F 68% 30.06 in 10.0 mi Calm Calm - N/A   Clear
9:55 PM 48.0 °F - 37.9 °F 68% 30.08 in 10.0 mi Calm Calm - N/A   Clear
10:55 PM 44.1 °F 42.5 °F 35.1 °F 71% 30.09 in 10.0 mi ENE 3.5 mph - N/A   Clear
11:55 PM 46.9 °F - 30.9 °F 54% 30.10 in 10.0 mi East 5.8 mph - N/A   Clear